Voltar ao catálogo

DELTA 1 DEB

AtivoPO
NORAD 21458·DEBRIS·🇺🇸 United States

Lançado Jun 12, 1975 de Vandenberg Space Force Base

Loading…

Próximas Passagens (próximas 24 horas)

TLE

AtualizadoSource: Space-Track

Época: Sep 14, 2026, 10:27 UTC

1 21458U 75052ES  26257.43556743  .00000071  00000-0  40714-3 0  9995
2 21458  99.7705  82.0562 0562372 151.4918 244.3016 12.44574463604679

Acompanhe DELTA 1 DEB em tempo real com AllMySat

Download on the App Store